Radiation Dose measured at exhaust stack monitor of Fukushima Daiichi Nuclear Power Station
Date,Time,Unit 5 6 shared exhaust cylinders,Wind Direction,Wind Velocity(m/s)
2024/03/23,00:00,3.7,northwest,4.8
2024/03/23,00:10,4.0,northwest,4.6
2024/03/23,00:20,3.6,northwest,4.7
2024/03/23,00:30,3.7,west-northwest,3.5
2024/03/23,00:40,3.7,west,2.0
2024/03/23,00:50,3.7,west-northwest,3.3
2024/03/23,01:00,3.7,west,2.2
2024/03/23,01:10,3.8,west-northwest,2.3
2024/03/23,01:20,3.7,west-northwest,1.9
2024/03/23,01:30,3.9,west-northwest,2.3
2024/03/23,01:40,4.0,west-northwest,2.3
2024/03/23,01:50,3.8,west,2.2
2024/03/23,02:00,3.8,northwest,2.3
2024/03/23,02:10,3.9,west-northwest,1.9
2024/03/23,02:20,3.8,west-northwest,1.9
2024/03/23,02:30,3.7,west-northwest,1.5
2024/03/23,02:40,3.9,west-northwest,1.7
2024/03/23,02:50,3.8,west-northwest,1.7
2024/03/23,03:00,3.6,west-northwest,1.5
2024/03/23,03:10,3.7,west-northwest,1.5
2024/03/23,03:20,3.9,west-northwest,1.2
2024/03/23,03:30,3.8,northwest,1.5
2024/03/23,03:40,3.6,northwest,0.8
2024/03/23,03:50,3.7,northwest,1.4
2024/03/23,04:00,3.7,northwest,1.8
2024/03/23,04:10,3.7,northwest,1.8
2024/03/23,04:20,3.7,northwest,1.8
2024/03/23,04:30,3.8,northwest,2.0
2024/03/23,04:40,3.7,northwest,2.2
2024/03/23,04:50,3.7,west-northwest,2.6
2024/03/23,05:00,3.8,northwest,2.6
2024/03/23,05:10,3.8,west-northwest,2.0
2024/03/23,05:20,3.8,west-northwest,2.2
2024/03/23,05:30,3.8,northwest,1.2
2024/03/23,05:40,3.7,north-northwest,0.9
2024/03/23,05:50,3.6,northwest,1.1
2024/03/23,06:00,3.7,northwest,0.6
2024/03/23,06:10,3.8,north-northwest,0.8
2024/03/23,06:20,3.8,northwest,0.6
2024/03/23,06:30,3.7,northwest,1.5
2024/03/23,06:40,3.9,northwest,1.7
2024/03/23,06:50,3.8,northwest,0.6
2024/03/23,07:00,3.8,north-northwest,1.9
2024/03/23,07:10,3.7,north-northwest,1.8
2024/03/23,07:20,3.9,northwest,2.6
2024/03/23,07:30,3.7,northwest,2.6
2024/03/23,07:40,3.8,northwest,2.5
2024/03/23,07:50,3.9,northwest,2.3
2024/03/23,08:00,3.9,northwest,1.8
2024/03/23,08:10,3.7,northwest,1.5
2024/03/23,08:20,3.8,northwest,2.0
2024/03/23,08:30,3.8,northwest,1.8
2024/03/23,08:40,3.9,northwest,1.2
2024/03/23,08:50,3.7,northwest,1.4
2024/03/23,09:00,3.7,north-northwest,2.0
2024/03/23,09:10,3.8,north-northwest,1.9
2024/03/23,09:20,3.8,north-northwest,1.5
2024/03/23,09:30,3.6,north-northwest,2.0
2024/03/23,09:40,3.7,north,1.7
2024/03/23,09:50,3.6,north,1.2
2024/03/23,10:00,3.8,north-northwest,1.1
2024/03/23,10:10,3.7,north-northeast,2.2
2024/03/23,10:20,3.7,north-northeast,1.8
2024/03/23,10:30,3.9,north,2.2
2024/03/23,10:40,3.7,north,1.8
2024/03/23,10:50,3.8,north,1.2
2024/03/23,11:00,4.0,north-northeast,1.5
2024/03/23,11:10,3.7,north-northeast,2.0
2024/03/23,11:20,3.8,north-northeast,1.9
2024/03/23,11:30,3.9,north-northeast,2.3
2024/03/23,11:40,3.9,northeast,2.8
2024/03/23,11:50,3.9,north-northeast,2.3
2024/03/23,12:00,3.8,north,2.6
2024/03/23,12:10,3.8,north-northwest,2.9
2024/03/23,12:20,3.8,north,2.3
2024/03/23,12:30,3.8,north-northeast,1.8
2024/03/23,12:40,3.7,north,2.3
2024/03/23,12:50,3.8,north,2.3
2024/03/23,13:00,3.8,north-northeast,1.9
2024/03/23,13:10,3.6,north,2.0
2024/03/23,13:20,3.7,north,2.0
2024/03/23,13:30,3.7,north-northwest,2.3
2024/03/23,13:40,3.8,north,2.8
2024/03/23,13:50,3.8,north,2.3
2024/03/23,14:00,3.7,north,2.2
2024/03/23,14:10,3.8,north,2.5
2024/03/23,14:20,3.9,north-northwest,3.0
2024/03/23,14:30,3.7,north,3.0
2024/03/23,14:40,3.7,north,2.6
2024/03/23,14:50,3.7,north,2.0
2024/03/23,15:00,3.7,north-northeast,2.0
2024/03/23,15:10,3.8,north,3.0
2024/03/23,15:20,3.9,north-northeast,3.8
2024/03/23,15:30,3.6,north,4.1
2024/03/23,15:40,3.8,north,2.8
2024/03/23,15:50,3.8,north-northwest,4.5
2024/03/23,16:00,3.8,north-northwest,3.5
2024/03/23,16:10,3.9,north-northwest,4.7
2024/03/23,16:20,3.8,north-northwest,4.2
2024/03/23,16:30,3.8,north-northwest,4.1
2024/03/23,16:40,3.7,north-northwest,4.6
2024/03/23,16:50,3.8,north-northwest,4.6
2024/03/23,17:00,3.8,north-northwest,4.4
2024/03/23,17:10,3.8,north-northwest,5.1
2024/03/23,17:20,3.8,north-northwest,6.0
2024/03/23,17:30,3.7,north-northwest,5.4
2024/03/23,17:40,3.7,north-northwest,5.4
2024/03/23,17:50,3.8,north-northwest,4.4
2024/03/23,18:00,3.7,northwest,4.6
2024/03/23,18:10,3.8,northwest,5.1
2024/03/23,18:20,3.9,north-northwest,5.1
2024/03/23,18:30,4.0,north-northwest,5.1
2024/03/23,18:40,3.8,north-northwest,5.6
2024/03/23,18:50,3.6,north-northwest,4.7
2024/03/23,19:00,3.8,north-northwest,4.2
2024/03/23,19:10,3.6,north-northwest,4.5
2024/03/23,19:20,3.8,north-northwest,5.1
2024/03/23,19:30,3.8,north-northwest,5.8
2024/03/23,19:40,3.8,north-northwest,5.8
2024/03/23,19:50,4.0,north-northwest,4.9
2024/03/23,20:00,3.9,north-northwest,6.0
2024/03/23,20:10,3.7,north,5.9
2024/03/23,20:20,3.8,north,6.8
2024/03/23,20:30,3.7,north-northwest,5.6
2024/03/23,20:40,3.8,north-northwest,6.4
2024/03/23,20:50,3.9,north-northwest,6.5
2024/03/23,21:00,3.8,north-northwest,6.1
2024/03/23,21:10,3.9,north-northwest,6.3
2024/03/23,21:20,3.8,north,8.2
2024/03/23,21:30,3.7,north,8.1
2024/03/23,21:40,3.8,north-northwest,6.4
2024/03/23,21:50,4.0,north-northwest,5.1
2024/03/23,22:00,3.8,north-northwest,5.8
2024/03/23,22:10,3.7,north-northwest,6.3
2024/03/23,22:20,3.8,north-northwest,5.7
2024/03/23,22:30,3.9,north-northwest,5.9
2024/03/23,22:40,3.9,north-northwest,6.7
2024/03/23,22:50,3.8,north-northwest,7.6
2024/03/23,23:00,3.8,north-northwest,7.4
2024/03/23,23:10,3.8,north-northwest,7.4
2024/03/23,23:20,3.9,north-northwest,6.6
2024/03/23,23:30,3.9,north-northwest,7.1
2024/03/23,23:40,3.8,north-northwest,7.1
2024/03/23,23:50,4.0,north-northwest,6.4
